[[{"header":{"parameterUnit":"m.s-1","parameterCategory":1,"la1":30.2991,"la2":30.254,"lo1":-89.0895,"lo2":-89.0444,"dy":0.0017,"dx":0.0017,"nx":28,"ny":28,"refTime":"2023-10-29T09:00:00:Z","depth":0,"parameterNumber":2,"parameterNumberName":"U-component_of_WINDS"},"data":[0,0,0,0,0,0,0,0,0,0,0,0,0,0,0,0,0,0,0,0,0,0,0,0,0,0,0,0,0,0,0,0,0,0,0,0,0,0,0,0,0,0,0,0,0,0,0,0,0,0,0,0,0,0,0,0,0,0,-0.8255,-0.8256,0,-0.8314,-0.8315,-0.8316,-0.8305,-0.8304,-0.8303,-0.8302,-0.8365,-0.8367,-0.837,0,0,0,0,0,0,0,0,0,0,0,0,0,-0.8137,-0.8139,-0.8255,-0.8256,-0.8257,-0.8314,-0.8315,-0.8316,-0.8306,-0.8304,-0.8303,-0.8302,-0.8364,-0.8367,-0.837,0,0,0,0,0,0,0,0,0,0,0,0,0,-0.8191,-0.814,-0.8255,-0.8259,-0.8259,-0.8314,-0.8315,-0.8316,-0.8306,-0.8304,-0.8303,-0.8301,-0.8363,-0.8367,-0.8371,-0.8426,0,0,-0.8383,-0.8384,0,0,0,0,0,0,0,0,-0.8188,-0.8196,-0.8257,-0.8258,-0.826,-0.8301,-0.8296,-0.8353,-0.8306,-0.8288,-0.8302,-0.83,-0.8345,-0.835,-0.8365,-0.8429,-0.8432,-0.8383,-0.8385,-0.8387,-0.8388,0,0,0,0,0,0,0,-0.8184,-0.8193,-0.8279,-0.8258,-0.826,-0.8258,-0.8264,-0.8307,-0.8325,-0.829,-0.8289,-0.8296,-0.8345,-0.8361,-0.8366,-0.8433,-0.8383,-0.8386,-0.8389,-0.839,-0.8546,-0.8548,0,0,0,0,0,0,-0.8179,-0.819,-0.8277,-0.828,-0.8219,-0.8261,-0.8268,-0.8289,-0.8324,-0.8328,-0.8297,-0.8295,-0.8355,-0.8362,-0.8368,-0.8436,-0.8387,-0.8391,-0.8393,-0.8544,-0.8546,-0.8548,0,0,0,0,0,0,-0.8177,-0.8187,-0.8274,-0.8235,-0.8246,-0.8265,-0.8289,-0.8291,-0.8307,-0.833,-0.8333,-0.831,-0.8354,-0.8363,-0.8412,-0.8438,-0.8393,-0.8396,-0.8542,-0.8545,-0.8547,-0.8572,0,0,0,0,0,0,-0.8173,-0.8186,-0.8207,-0.8236,-0.8248,-0.8316,-0.829,-0.8293,-0.8313,-0.8311,-0.8343,-0.8346,-0.8354,-0.8406,-0.8416,-0.8443,-0.8399,-0.854,-0.8543,-0.8547,-0.8569,-0.8575,-0.858,0,0,0,0,0,-0.8169,-0.8212,-0.8208,-0.8219,-0.8274,-0.8318,-0.8325,-0.8332,-0.8316,-0.8337,-0.8352,-0.8345,-0.8433,-0.8411,-0.8422,-0.8451,-0.8538,-0.8543,-0.8546,-0.8566,-0.8574,-0.858,0,0,0,0,0,0,-0.8187,-0.8216,-0.8212,-0.8265,-0.8289,-0.8316,-0.8343,-0.834,-0.8369,-0.8366,-0.8374,-0.8381,-0.8431,-0.8446,-0.842,-0.8506,-0.8484,-0.849,-0.8495,-0.8502,-0.8508,-0.8504,-0.8403,0,0,0,0,0,-0.8197,-0.8229,-0.8253,-0.8297,-0.8309,-0.8324,-0.8344,-0.8346,-0.8372,-0.8382,-0.8401,-0.8426,-0.846,-0.8482,-0.8514,-0.857,-0.8578,-0.8596,-0.8601,-0.8606,-0.8612,-0.8643,-0.8652,-0.8561,-0.8561,-0.8561,0,0,-0.8218,-0.8238,-0.8258,-0.8301,-0.832,-0.8354,-0.8333,-0.837,-0.8395,-0.8388,-0.8436,-0.845,-0.8479,-0.8532,-0.8557,-0.8546,-0.8638,-0.8611,-0.8614,-0.8618,-0.8648,-0.8657,-0.8664,-0.8564,-0.8564,-0.8563,0,0,-0.8274,-0.8292,-0.8331,-0.835,-0.8379,-0.8388,-0.8398,-0.8426,-0.8435,-0.8482,-0.8478,-0.8508,-0.8566,-0.8587,-0.8605,-0.8669,-0.8664,-0.8679,-0.871,-0.874,-0.8747,-0.8754,-0.8777,-0.8785,-0.8685,-0.8685,-0.8685,0,-0.8297,-0.8347,-0.8352,-0.8389,-0.8409,-0.8403,-0.8443,-0.8462,-0.85,-0.8514,-0.8501,-0.8573,-0.8593,-0.8651,-0.8666,-0.8681,-0.8693,-0.8676,-0.8746,-0.8752,-0.8758,-0.8781,-0.8789,-0.8686,-0.8686,-0.8686,-0.8686,0,-0.8374,-0.8409,-0.8437,-0.8473,-0.8496,-0.8535,-0.8546,-0.8569,-0.857,-0.8581,-0.863,-0.8653,-0.8689,-0.8703,-0.8705,-0.8762,-0.8755,-0.8744,-0.8721,-0.8768,-0.879,-0.8798,-0.8689,-0.8688,-0.8688,-0.8687,0,0,-0.8444,-0.8481,-0.8492,-0.8508,-0.8539,-0.8567,-0.8605,-0.864,-0.866,-0.8686,-0.872,-0.8768,-0.8758,-0.8779,-0.8783,-0.881,-0.886,-0.8796,-0.8797,-0.8807,-0.8925,-0.8933,-0.8943,-0.8856,-0.8858,-0.8859,-0.8923,0,-0.8503,-0.857,-0.8576,-0.8637,-0.8669,-0.8664,-0.8698,-0.8721,-0.8733,-0.8763,-0.8775,-0.881,-0.8794,-0.8807,-0.8833,-0.8848,-0.8883,-0.8843,-0.8888,-0.889,-0.8882,-0.8954,-0.8963,-0.9022,-0.8931,-0.8932,-0.8933,0,-0.8581,-0.8609,-0.8673,-0.87,-0.8714,-0.8744,-0.8777,-0.8805,-0.8832,-0.8838,-0.8861,-0.8861,-0.8902,-0.8877,-0.8934,-0.8906,-0.8925,-0.8935,-0.8938,-0.8943,-0.8915,-0.8962,-0.9041,-0.905,-0.8946,-0.8945,-0.8944,0,-0.8627,-0.868,-0.8725,-0.8739,-0.8771,-0.8793,-0.8807,-0.8832,-0.8853,-0.8882,-0.8895,-0.8929,-0.8947,-0.8974,-0.8983,-0.8964,-0.904,-0.9016,-0.9047,-0.9047,-0.9064,-0.9063,-0.9147,-0.9074,-0.9074,-0.9074,-0.9074,0,-0.8693,-0.8732,-0.8746,-0.8774,-0.8818,-0.8824,-0.8868,-0.8882,-0.8904,-0.8935,-0.8933,-0.8962,-0.8972,-0.9004,-0.9012,-0.9058,-0.9066,-0.9073,-0.9075,-0.9074,-0.9073,-0.9087,-0.9083,-0.9076,-0.9076,-0.9075,-0.9075,0,-0.8751,-0.8762,-0.8811,-0.8837,-0.8844,-0.8876,-0.8898,-0.8926,-0.8936,-0.8976,-0.8985,-0.9003,-0.9039,-0.9051,-0.9096,-0.9101,-0.9155,-0.9153,-0.9146,-0.9146,-0.9177,-0.9175,-0.9274,-0.9288,-0.9206,-0.9206,-0.9207,0,-0.8793,-0.8823,-0.8852,-0.8872,-0.8887,-0.892,-0.8941,-0.8948,-0.897,-0.9003,-0.9027,-0.9063,-0.9092,-0.9151,-0.9168,-0.9203,-0.9202,-0.9234,-0.9207,-0.9205,-0.9203,-0.9202,-0.9205,-0.924,-0.9241,-0.9241,-0.9242,0,-0.8866,-0.887,-0.89,-0.8932,-0.8957,-0.8983,-0.9007,-0.9024,-0.9035,-0.9061,-0.9098,-0.912,-0.9166,-0.9202,-0.9237,-0.9253,-0.925,-0.925,-0.9259,-0.9259,-0.9254,-0.9258,-0.9161,-0.9248,-0.9248,-0.9247,-0.9247,-0.9246,-0.8918,-0.8945,-0.897,-0.9003,-0.9022,-0.9046,-0.9073,-0.9086,-0.9117,-0.9154,-0.9157,-0.9197,-0.9223,-0.9269,-0.9287,-0.9319,-0.931,-0.9323,-0.9327,-0.933,-0.9333,-0.9248,-0.9325,-0.9325,-0.9325,-0.9325,-0.9325,0,-0.8992,-0.9008,-0.9038,-0.9073,-0.9099,-0.9093,-0.912,-0.9143,-0.9178,-0.9202,-0.9231,-0.9274,-0.9309,-0.9329,-0.9364,-0.9386,-0.9386,-0.9396,-0.9395,-0.9398,-0.9339,-0.9327,-0.9395,-0.9395,-0.9395,-0.9395,-0.9395,-0.9395,-0.9034,-0.9079,-0.9086,-0.914,-0.9156,-0.9195,-0.9211,-0.9232,-0.9252,-0.9299,-0.9328,-0.934,-0.9363,-0.94,-0.9432,-0.9437,-0.9451,-0.9462,-0.9466,-0.941,-0.9402,-0.9396,-0.9385,-0.9464,-0.9464,-0.9523,-0.9523,-0.9524]},{"header":{"parameterUnit":"m.s-1","parameterCategory":1,"la1":30.2991,"la2":30.254,"lo1":-89.0895,"lo2":-89.0444,"dy":0.0017,"dx":0.0017,"nx":28,"ny":28,"refTime":"2023-10-29T09:00:00:Z","depth":0,"parameterNumber":3,"parameterNumberName":"V-component_of_WINDS"},"data":[0,0,0,0,0,0,0,0,0,0,0,0,0,0,0,0,0,0,0,0,0,0,0,0,0,0,0,0,0,0,0,0,0,0,0,0,0,0,0,0,0,0,0,0,0,0,0,0,0,0,0,0,0,0,0,0,0,0,-1.1601,-1.1601,0,-1.1632,-1.1632,-1.1633,-1.1628,-1.1627,-1.1627,-1.1626,-1.1657,-1.1658,-1.1659,0,0,0,0,0,0,0,0,0,0,0,0,0,-1.1536,-1.1537,-1.1601,-1.1601,-1.1602,-1.1632,-1.1632,-1.1633,-1.1628,-1.1627,-1.1626,-1.1626,-1.1656,-1.1658,-1.1659,0,0,0,0,0,0,0,0,0,0,0,0,0,-1.1565,-1.1538,-1.1601,-1.1603,-1.1603,-1.1632,-1.1633,-1.1633,-1.1628,-1.1627,-1.1626,-1.1625,-1.1656,-1.1658,-1.166,-1.1688,0,0,-1.1666,-1.1667,0,0,0,0,0,0,0,0,-1.1564,-1.1568,-1.1602,-1.1603,-1.1603,-1.1625,-1.1621,-1.1651,-1.1628,-1.1618,-1.1626,-1.1625,-1.1647,-1.1649,-1.1657,-1.169,-1.1691,-1.1666,-1.1667,-1.1668,-1.1669,0,0,0,0,0,0,0,-1.1562,-1.1566,-1.1613,-1.1603,-1.1603,-1.1602,-1.1605,-1.1627,-1.1637,-1.1619,-1.1619,-1.1623,-1.1647,-1.1655,-1.1658,-1.1691,-1.1666,-1.1668,-1.1669,-1.167,-1.1749,-1.175,0,0,0,0,0,0,-1.1559,-1.1565,-1.1612,-1.1614,-1.1581,-1.1604,-1.1607,-1.1619,-1.1637,-1.1638,-1.1623,-1.1622,-1.1652,-1.1655,-1.1659,-1.1694,-1.1668,-1.167,-1.1671,-1.1748,-1.1749,-1.175,0,0,0,0,0,0,-1.1558,-1.1564,-1.1611,-1.1589,-1.1595,-1.1606,-1.1619,-1.162,-1.1628,-1.164,-1.1641,-1.163,-1.1652,-1.1656,-1.1681,-1.1695,-1.1671,-1.1673,-1.1747,-1.1748,-1.175,-1.1763,0,0,0,0,0,0,-1.1556,-1.1563,-1.1574,-1.159,-1.1597,-1.1633,-1.162,-1.1621,-1.1632,-1.1631,-1.1646,-1.1648,-1.1651,-1.1678,-1.1683,-1.1697,-1.1674,-1.1746,-1.1748,-1.1749,-1.1762,-1.1765,-1.1768,0,0,0,0,0,-1.1554,-1.1576,-1.1575,-1.158,-1.1611,-1.1634,-1.1638,-1.1641,-1.1633,-1.1644,-1.1651,-1.1648,-1.1692,-1.1681,-1.1686,-1.1701,-1.1745,-1.1747,-1.1749,-1.176,-1.1764,-1.1768,0,0,0,0,0,0,-1.1562,-1.1578,-1.1577,-1.1605,-1.1618,-1.1633,-1.1647,-1.1645,-1.1661,-1.1659,-1.1662,-1.1666,-1.1692,-1.1699,-1.1685,-1.1729,-1.1717,-1.1721,-1.1724,-1.1728,-1.1731,-1.1729,-1.1676,0,0,0,0,0,-1.1567,-1.1584,-1.1598,-1.1622,-1.1628,-1.1637,-1.1647,-1.1649,-1.1662,-1.1667,-1.1677,-1.1689,-1.1706,-1.1717,-1.1734,-1.1763,-1.1766,-1.1775,-1.1778,-1.1781,-1.1784,-1.18,-1.1804,-1.1757,-1.1757,-1.1757,0,0,-1.1577,-1.1589,-1.16,-1.1624,-1.1634,-1.1652,-1.1641,-1.1661,-1.1674,-1.167,-1.1695,-1.1702,-1.1716,-1.1744,-1.1756,-1.175,-1.1797,-1.1783,-1.1785,-1.1787,-1.1802,-1.1807,-1.1811,-1.1758,-1.1758,-1.1758,0,0,-1.1606,-1.1616,-1.1637,-1.1648,-1.1664,-1.1669,-1.1674,-1.169,-1.1694,-1.1719,-1.1717,-1.1732,-1.1761,-1.1772,-1.1781,-1.1815,-1.1812,-1.182,-1.1836,-1.1851,-1.1855,-1.1858,-1.1871,-1.1875,-1.1822,-1.1822,-1.1822,0,-1.1617,-1.1645,-1.1648,-1.1669,-1.1679,-1.1677,-1.1698,-1.1708,-1.1728,-1.1736,-1.1729,-1.1766,-1.1776,-1.1805,-1.1814,-1.1821,-1.1827,-1.1818,-1.1854,-1.1858,-1.1861,-1.1873,-1.1877,-1.1823,-1.1823,-1.1823,-1.1823,0,-1.1658,-1.1677,-1.1692,-1.1712,-1.1725,-1.1745,-1.1752,-1.1764,-1.1765,-1.1771,-1.1796,-1.1807,-1.1826,-1.1833,-1.1834,-1.1863,-1.1859,-1.1854,-1.1842,-1.1866,-1.1877,-1.1882,-1.1825,-1.1824,-1.1824,-1.1824,0,0,-1.1692,-1.1715,-1.172,-1.1729,-1.1747,-1.1762,-1.1782,-1.1801,-1.1811,-1.1825,-1.1843,-1.1868,-1.1862,-1.1873,-1.1875,-1.1888,-1.1914,-1.1881,-1.1881,-1.1887,-1.1948,-1.1953,-1.1958,-1.1913,-1.1913,-1.1914,-1.1947,0,-1.1723,-1.176,-1.1764,-1.1796,-1.1814,-1.1812,-1.183,-1.1843,-1.1849,-1.1865,-1.1872,-1.1889,-1.1881,-1.1887,-1.1901,-1.1908,-1.1927,-1.1906,-1.1929,-1.193,-1.1926,-1.1964,-1.1969,-1.1999,-1.1951,-1.1952,-1.1953,0,-1.1763,-1.1779,-1.1814,-1.183,-1.1837,-1.1853,-1.1871,-1.1886,-1.19,-1.1904,-1.1916,-1.1916,-1.1937,-1.1924,-1.1953,-1.1939,-1.1948,-1.1954,-1.1955,-1.1957,-1.1943,-1.1968,-1.2009,-1.2014,-1.1959,-1.1959,-1.1958,0,-1.1786,-1.1816,-1.184,-1.1848,-1.1867,-1.1878,-1.1887,-1.19,-1.1911,-1.1927,-1.1934,-1.1951,-1.1961,-1.1974,-1.1979,-1.1969,-1.2008,-1.1995,-1.2012,-1.2012,-1.202,-1.202,-1.2064,-1.2026,-1.2026,-1.2025,-1.2025,0,-1.182,-1.1841,-1.1851,-1.1866,-1.189,-1.1894,-1.1918,-1.1925,-1.1937,-1.1954,-1.1953,-1.1969,-1.1974,-1.199,-1.1994,-1.2018,-1.2022,-1.2025,-1.2026,-1.2026,-1.2025,-1.2032,-1.203,-1.2027,-1.2026,-1.2026,-1.2026,0,-1.1849,-1.1856,-1.1883,-1.1899,-1.1903,-1.192,-1.1933,-1.1948,-1.1954,-1.1975,-1.198,-1.199,-1.2009,-1.2015,-1.2038,-1.204,-1.2068,-1.2067,-1.2064,-1.2064,-1.208,-1.2079,-1.2131,-1.2138,-1.2094,-1.2095,-1.2095,0,-1.187,-1.1887,-1.1904,-1.1916,-1.1924,-1.1943,-1.1954,-1.1959,-1.1971,-1.1989,-1.2002,-1.2021,-1.2036,-1.2067,-1.2076,-1.2094,-1.2093,-1.211,-1.2095,-1.2095,-1.2094,-1.2093,-1.2095,-1.2113,-1.2113,-1.2114,-1.2114,0,-1.1908,-1.1911,-1.1928,-1.1946,-1.196,-1.1975,-1.1989,-1.1998,-1.2005,-1.2019,-1.2039,-1.2051,-1.2075,-1.2094,-1.2112,-1.212,-1.2118,-1.2118,-1.2123,-1.2123,-1.2121,-1.2123,-1.2072,-1.2117,-1.2117,-1.2117,-1.2116,-1.2116,-1.1934,-1.1949,-1.1964,-1.1983,-1.1994,-1.2007,-1.2022,-1.203,-1.2047,-1.2067,-1.2069,-1.2091,-1.2105,-1.2129,-1.2138,-1.2155,-1.215,-1.2157,-1.2159,-1.216,-1.2162,-1.2118,-1.2158,-1.2158,-1.2158,-1.2158,-1.2158,0,-1.1972,-1.1981,-1.1999,-1.2019,-1.2034,-1.2031,-1.2047,-1.206,-1.2079,-1.2092,-1.2108,-1.2131,-1.215,-1.216,-1.2179,-1.219,-1.219,-1.2195,-1.2194,-1.2196,-1.2165,-1.2159,-1.2195,-1.2195,-1.2195,-1.2195,-1.2195,-1.2195,-1.1993,-1.2018,-1.2023,-1.2054,-1.2063,-1.2085,-1.2094,-1.2106,-1.2117,-1.2143,-1.2159,-1.2166,-1.2178,-1.2198,-1.2214,-1.2217,-1.2224,-1.223,-1.2232,-1.2202,-1.2199,-1.2195,-1.219,-1.2231,-1.2231,-1.2262,-1.2262,-1.2262]}]]